This demonstration page uses our WeatherBlox Daily Observations layout. Learn more.

Left ArrowRight Arrow

Hourly Observations for August 24, 2021

Temp ( °F °C ) Dew Point ( °F °C ) Humidity (%) Winds ( mph kmh ) Pressure ( in mb ) Visibility ( mi km ) Precip ( " mm )
12:53 am 00:53 Clear 66 18.9 45 7.2 47 47 Calm 29.80 1009 8 13 0.00 0.00
1:53 am 01:53 Clear 66 18.9 45 7.2 47 47 NW 5 7 29.81 1010 9 14 0.00 0.00
2:53 am 02:53 Clear 64 17.8 43 6.1 46 46 Calm 29.82 1010 9 14 0.00 0.00
3:53 am 03:53 Clear 63 17.2 44 6.7 50 50 Calm 29.83 1010 9 14 0.00 0.00
4:53 am 04:53 Clear 60 15.6 45 7.2 58 58 Calm 29.85 1011 8 13 0.00 0.00
5:53 am 05:53 Clear 60 15.6 43 6.1 53 53 ENE 3 6 29.86 1011 9 14 0.00 0.00
6:53 am 06:53 Hazy 59 15 45 7.2 60 60 Calm 29.87 1012 6 10 0.00 0.00
7:53 am 07:53 Hazy 64 17.8 44 6.7 48 48 Calm 29.89 1012 7 11 0.00 0.00
8:53 am 08:53 Hazy 69 20.6 44 6.7 41 41 Calm 29.89 1012 7 11 0.00 0.00
9:53 am 09:53 Hazy 75 23.9 46 7.8 36 36 Calm 29.88 1012 6 10 0.00 0.00
10:53 am 10:53 Hazy 77 25 48 8.9 36 36 VRB 3 6 29.88 1012 8 13 0.00 0.00
11:53 am 11:53 Hazy 83 28.3 46 7.8 27 27 WNW 5 7 29.87 1011 8 13 0.00 0.00
12:53 pm 12:53 Hazy 85 29.4 46 7.8 26 26 VRB 5 7 29.85 1011 7 11 0.00 0.00
1:53 pm 13:53 Hazy 89 31.7 41 5 19 19 SSE 12 19 29.83 1010 7 11 0.00 0.00
2:53 pm 14:53 Mostly Cloudy with Haze 90 32.2 41 5 18 18 S 7 11 29.82 1010 4 6 0.00 0.00
3:53 pm 15:53 Hazy 91 32.8 37 2.8 15 15 VRB 6 9 29.80 1009 5 8 0.00 0.00
4:53 pm 16:53 Hazy 90 32.2 34 1.1 14 14 SSE 9 15 29.79 1009 6 10 0.00 0.00
5:53 pm 17:53 Hazy 89 31.7 33 0.6 14 14 S 8 13 29.79 1009 6 10 0.00 0.00
6:53 pm 18:53 Hazy 86 30 29 -1.7 13 13 SSE 7 11 29.78 1009 9 14 0.00 0.00
7:53 pm 19:53 Mostly Cloudy with Haze 81 27.2 31 -0.6 16 16 SSE 5 7 29.79 1009 9 14 0.00 0.00
8:53 pm 20:53 Mostly Cloudy with Haze 77 25 31 -0.6 18 18 Calm 29.81 1010 10 16 0.00 0.00
9:53 pm 21:53 Hazy 75 23.9 33 0.6 22 22 Calm 29.83 1010 10 16 0.00 0.00
10:53 pm 22:53 Hazy 70 21.1 33 0.6 26 26 N 3 6 29.85 1011 10 16 0.00 0.00
11:53 pm 23:53 Hazy 68 20 32 0 26 26 N 3 6 29.85 1011 10 16 0.00 0.00

Powered by AerisWeather